sat.trackr.live / text

‹ back to catalog

STARLINK-3733

NORAD 52137 · 2022-029BB

PAYLOAD ACTIVE UNKNOWN

§ Identity

Operator
Country
US
Launch date
2022-03-19
Launch site
AFETR
Launch vehicle
Mass (kg)
RCS (m²)

Purposes: comms

External: N2YO · Heavens-Above · Gunter

§ Orbital elements

Epoch: 2026-05-25T02:15:29.033856Z

Period
95.44 min
Inclination
53.2143°
Eccentricity
0.0001329
Mean motion
15.08843537 rev/d
Perigee alt
538.8 km
Apogee alt
540.7 km
Semi-major
6,917.9 km
B*
-2.7452e-7
RAAN
86.1252°
Arg perigee
76.5417°
Mean anomaly
283.5723°
Rev number
23,247

§ Raw data

STARLINK-37331 52137U 22029BB  26145.09408604 -.00000292  00000+0 -27452-6 0  99922 52137  53.2143  86.1252 0001329  76.5417 283.5723 15.08843537232479

JSON: /api/v1/satellites/52137 · /tle

For live sub-satellite position, see the globe view (requires WebGL).

§ Visibility from observer

Set your observer location to see the next 7 days of passes ≥ 10°. The values pass through the URL so the page stays shareable.

No JS? Fill the form by hand. The geolocation button needs JavaScript.